NOAA 16 DEB, 41130

Orbit data source: Space-Track

NOAA 16 DEB, 41130 is space debris in SSO originally from a launch on Thu, 21 Sep 2000 UTC launched from the Air Force Western Test Range (AFWTR). Debris objects in space refer to the collection of defunct objects orbiting the Earth. Examples of debris include non-operational satellites, rocket bodies, and fragments generated from explosions, collisions, or faulty payload assembly.

Loading next visibility...
Identifier
41130, 2000-055BM
Orbit
SSO
Country
Flag of USUS
Related business
Manufacturer
Unknown
Mission
Spacecraft
Bus & Motor
Unknown
Mass
Unknown
Launch date (UTC)
2000-09-21 (25 years ago)
Launch vehicle
Unknown
Launch site
Air Force Western Test Range (AFWTR)
Object type
Payload
Rocket body
Debris
Shape & HBR
Unknown shape, 0.1 m
Radar Cross Section
Small (<0.1 m²)

Expand to show TLE details & history
Last TLE update: 18 hours ago

TLE from 18 hours ago
0 NOAA 16 DEB
1 41130U 00055BM  26036.86701972  .00009576  00000-0  30655-2 0  9994
2 41130  98.9326 189.2204 0019914 180.5033 179.6137 14.39660492527910
Epoch: 2026-02-05T20:48Z
TLE epoch observation values (Epoch: 2026-02-05T20:48:30.503Z)
Latitude
-0.00003°
Longitude
101.08022°
Altitude
776.771 km
Speed
7.458 km/s
True Right ascension
12h 36m 52s
True Declination
0° 00' 00"
Sunlit
Object was in full shadow at epoch
Visualization orbit readout
Latitude
Unknown
Longitude
Unknown
Altitude
Unknown
Speed
Unknown
Apparent Right ascension
Unknown
Apparent Declination
Unknown
Sunlit
N/A
Visualization observer readout
Local Sidereal Time
16:42:24
Azimuth
Unknown
Elevation
Unknown
Doppler factor
Unknown
Orbital elements
Apogee altitude
770.972 km
Perigee altitude
742.555 km
Semi-major axis
7,134.901 km
Eccentricity
0.00199
Inclination
98.9326°
RAAN
189.2204°
Arg. of periapsis
180.5033°
True anomaly
179.61523°
Mean anomaly
179.6137°
Eccentric anomaly
179.61447°
Mean motion
3.60132 °/min
Orbital period
99.96 mins
BSTAR
0.0030655
Loading maneuver chart data...
Computing Atmospheric mass density...
Loading historical data...
Loading historical data...
Loading historical data...
Loading historical data...
Loading historical data...
Loading historical data...
Loading historical data...

Documentation

Showing up to 5 results
|